SB KEPS @ AMSAT $ORB06314.N 2Line Orbital Elements 06314.AMSAT
HR AMSAT ORBITAL ELEMENTS FOR AMATEUR SATELLITES IN NASA FORMAT FROM WA5QGD FORT WORTH,TX November 10, 2006 Send SUBSCRIBE KEPS/UNSUBSCRIBE KEPS to [email protected] only BID: ORB06314.N
DECODE 2-LINE ELSETS WITH THE FOLLOWING KEY: 1 AAAAAU 00 0 0 BBBBB.BBBBBBBB .CCCCCCCC 00000-0 00000-0 0 DDDZ 2 AAAAA EEE.EEEE FFF.FFFF GGGGGGG HHH.HHHH III.IIII JJ.JJJJJJJJKKKKKZ KEY: A-CATALOGNUM B-EPOCHTIME C-DECAY D-ELSETNUM E-INCLINATION F-RAAN G-ECCENTRICITY H-ARGPERIGEE I-MNANOM J-MNMOTION K-ORBITNUM Z-CHECKSUM
TO ALL RADIO AMATEURS BT
AO-07 1 07530U 74089B 06314.71121499 -.00000028 00000-0 10000-3 0 7253 2 07530 101.5501 353.8809 0011790 321.3714 038.6512 12.53571704463749 UO-11 1 14781U 84021B 06313.59561739 -.00000125 00000-0 -93339-5 0 02214 2 14781 098.2037 326.8934 0009471 152.3987 207.7740 14.79478756217266 RS-10/11 1 18129U 87054A 06313.81108639 .00000034 00000-0 20449-4 0 01503 2 18129 082.9245 220.4248 0013419 050.5878 309.6461 13.72780247971137 RS-15 1 23439U 94085A 06314.62350738 -.00000039 00000-0 10597-3 0 9881 2 23439 064.8215 000.3922 0166042 228.7835 129.8674 11.27551768489055 FO-29 1 24278U 96046B 06313.93199272 .00000004 00000-0 42981-4 0 03652 2 24278 098.5209 298.3640 0350099 291.8056 064.6184 13.52925310505254 SO-33 1 25509U 98061B 06314.61177424 .00000432 00000-0 73523-4 0 7880 2 25509 031.4361 021.4972 0355483 316.5250 040.7854 14.28136208419980 VO-52 1 28650U 05017B 06313.63630853 .00000495 00000-0 70016-4 0 04767 2 28650 097.8574 023.9819 0026302 247.4265 112.4199 14.81203024081919 AO-16 1 20439U 90005D 06313.58207724 .00000022 00000-0 23370-4 0 08903 2 20439 098.1889 315.3688 0011673 118.2680 241.9687 14.31738808877126 LO-19 1 20442U 90005G 06314.63570453 .00000048 00000-0 32908-4 0 8237 2 20442 098.1838 325.8827 0012728 115.2077 245.0452 14.31981228877417 AO-27 1 22825U 93061C 06313.85855941 .00000045 00000-0 33929-4 0 5407 2 22825 098.3017 288.6702 0008096 185.3617 174.7488 14.29189159684169 IO-26 1 22826U 93061D 06313.52352345 .00000034 00000-0 29338-4 0 2327 2 22826 098.2953 289.5100 0008579 184.3712 175.7393 14.29433739684196 PO-28 1 22829U 93061G 06314.49625117 -.00000050 00000-0 -33836-5 0 5172 2 22829 098.2860 291.6304 0010066 156.3288 203.8367 14.30129933684551 GO-32 1 25397U 98043D 06313.65809175 -.00000028 00000-0 61836-5 0 01558 2 25397 098.4483 005.0987 0001712 123.3266 236.8077 14.23114036432936 MO-46 1 26548U 00057D 06314.57646337 .00000153 00000-0 36817-4 0 6436 2 26548 064.5546 138.9350 0038791 226.7313 133.0610 14.83044311331110 NO-44 1 26931U 01043C 06313.60298911 .00000050 00000-0 51748-4 0 4447 2 26931 067.0539 353.1186 0004989 260.6538 099.4000 14.29459906266713 SO-50 1 27607U 02058C 06313.77171251 .00000087 00000-0 35626-4 0 1668 2 27607 064.5597 031.1574 0034880 083.7903 276.7174 14.71191252208843 CO-55 1 27844U 03031E 06314.60651529 .00000040 00000-0 38976-4 0 8901 2 27844 098.7208 320.8957 0010006 006.5670 353.5649 14.20468836174443 CO-57 1 27848U 03031J 06314.59963811 -.00000638 00000-0 -27763-3 0 8550 2 27848 098.7194 320.1709 0009968 010.3248 349.8076 14.20291992174425 AO-51 1 28375U 04025K 06314.70568912 .00000034 00000-0 22888-4 0 6725 2 28375 098.1453 359.9208 0084416 123.6096 237.3192 14.40540752124256 CO-56 1 28941U 06005C 06313.87065477 .00022644 25533-5 27255-3 0 02574 2 28941 098.1605 346.7603 0259652 324.5144 033.9035 15.30283501039784 HO-59 1 29484U 06041F 06313.74494538 .00043139 29620-5 39057-3 0 582 2 29484 098.3174 327.8369 0268041 323.2444 035.0374 15.34275446 7248 NOAA-10 1 16969U 86073A 06313.60603821 -.00000077 00000-0 -13017-4 0 04182 2 16969 098.7569 325.5405 0013181 087.3637 272.9032 14.27307910047908 NOAA-11 1 19531U 88089A 06313.33664991 -.00000114 00000-0 -35983-4 0 03721 2 19531 098.8232 040.1542 0011040 298.5023 061.5031 14.14823915935061 NOAA-12 1 21263U 91032A 06313.68051471 -.00000108 00000-0 -26989-4 0 08666 2 21263 098.7425 306.4357 0013190 028.2066 331.9828 14.25513017804978 MET-3/5 1 21655U 91056A 06313.92404440 .00000051 00000-0 10000-3 0 02285 2 21655 082.5550 157.8540 0014236 038.4328 321.7806 13.17008254732549 MET-2/21 1 22782U 93055A 06313.74796514 .00000080 00000-0 58569-4 0 06665 2 22782 082.5502 215.9730 0023316 128.8183 231.5075 13.83610310666173 OKEAN-4 1 23317U 94066A 06313.74871208 .00000047 00000-0 29770-5 0 1006 2 23317 082.5355 141.2495 0020700 255.1615 104.7290 14.82418597651549 NOAA-14 1 23455U 94089A 06313.67508596 -.00000058 00000-0 -67784-5 0 03657 2 23455 099.0208 013.3735 0009213 004.5890 355.5378 14.13675372611623 SICH-1 1 23657U 95046A 06313.70664177 .00000348 00000-0 41354-4 0 09040 2 23657 082.5258 282.1757 0022360 243.6816 116.2093 14.81410169603534 NOAA-15 1 25338U 98030A 06313.69142138 -.00000040 00000-0 93311-6 0 07398 2 25338 098.5223 311.6903 0010041 313.5311 046.5045 14.24609660441436 RESURS 1 25394U 98043A 06313.79136993 .00000006 00000-0 20876-4 0 4995 2 25394 098.4732 011.6341 0002250 096.6894 263.4541 14.24116600433128 FENGYUN1 1 25730U 99025A 06313.54820585 -.00000201 00000-0 -87093-4 0 08717 2 25730 098.6388 300.6871 0015319 086.6300 273.6614 14.11816310386527 OKEAN-0 1 25860U 99039A 06313.61098361 .00000117 00000-0 25311-4 0 08981 2 25860 097.7315 321.1614 0001599 050.2835 309.8509 14.73402298393166 NOAA-16 1 26536U 00055A 06313.65587923 -.00000151 00000-0 -56996-4 0 01305 2 26536 099.0888 282.1253 0011256 071.0408 289.1979 14.12380648316118 NOAA-17 1 27453U 02032A 06313.70901923 .00000155 00000-0 86517-4 0 01503 2 27453 098.6076 022.9922 0011806 016.5694 343.5872 14.23825372227484 NOAA-18 1 28654U 05018A 06313.71847863 -.00000179 00000-0 -75657-4 0 07122 2 28654 098.8051 253.9694 0014254 166.5058 193.6485 14.11005790075908 HUBBLE 1 20580U 90037B 06314.86551095 .00000550 00000-0 30015-4 0 7370 2 20580 028.4672 173.6622 0003567 297.0056 063.0173 15.00127747707146 UARS 1 21701U 91063B 06313.94990642 .00006941 00000-0 12445-3 0 09287 2 21701 056.9758 183.4832 0105443 127.8315 233.2342 15.45293397831825 PO-34 1 25520U 98064B 06313.82742026 .00000743 00000-0 27073-4 0 06203 2 25520 028.4576 136.7277 0005384 029.3849 330.7046 15.16834860444182 ISS 1 25544U 98067A 06314.82976852 .00015840 00000-0 95107-4 0 334 2 25544 051.6334 151.7188 0012021 196.2992 353.4063 15.77888743456297 OO-38 1 26063U 00004C 06313.72944654 .00000013 00000-0 24779-4 0 07642 2 26063 100.2033 271.0529 0037233 057.5766 302.9004 14.35783730355561 NO-45 1 26932U 01043D 06313.60967869 .00000005 00000-0 34283-4 0 04583 2 26932 067.0555 352.8303 0004808 234.2230 125.8424 14.29539944266754 UWE-1 1 28892U 05043C 06313.89213897 .00000716 00000-0 16061-3 0 5998 2 28892 098.1468 209.6170 0018470 076.7490 283.5769 14.59421237 55227 CO-58 1 28895U 05043F 06313.46685598 .00000002 00000-0 10121-4 0 05816 2 28895 098.1502 209.3307 0019059 078.3177 282.0095 14.59466687055046 NCUBE2 1 28897U 05043H 06313.70282327 .00000231 00000-0 58171-4 0 1422 2 28897 098.1481 209.5368 0018355 078.5502 281.7760 14.59625318 47353 /EX